Location: Strohbehn Observatory
(42.4649°N, 93.8239°W)
Time: 00:08:49
(UTC-05:00)

Daily predictions for brighter satellites

Satellite Brightness Start Highest point End
(mag) Time Altitude Azimuth Time Altitude Azimuth Time Altitude Azimuth
ATLAS 2AS CENTAUR R/B 4.2 02:37:57 37° NNE 02:37:57 37° NNE 02:42:26 10° NE
Resurs 1-4 Rocket 4.5 03:07:14 10° NE 03:09:10 19° NE 03:09:10 19° NE
Cosmos 2333 Rocket 4.4 03:35:22 10° NNW 03:48:08 - SE 03:36:54 18° N
Lacrosse 5 rocket 4.2 03:49:25 17° NNE 03:49:25 17° NNE 03:50:34 10° NE
SL-16 R/B 3.8 03:52:16 32° N 03:52:16 32° N 03:55:26 10° NNW
ARIANE 5 R/B 4.3 03:52:35 10° NNE 03:54:51 27° NNE 03:54:51 27° NNE
Cosmos 2237 Rocket 3.4 03:57:37 10° NNW 04:05:43 28° ESE 04:08:31 10° SE
ATLAS 5 CENTAUR R/B 2.9 04:04:00 53° NNE 04:04:40 56° NE 04:10:59 10° SE
NOSS 3-4 (A) 3.9 04:05:23 57° ESE 04:05:23 57° ESE 04:11:25 10° NE
NOSS 3-4 (C) 3.9 04:05:28 56° ESE 04:05:28 56° ESE 04:11:31 10° NE
Cosmos 1680 Rocket 4.3 04:07:45 10° N 04:16:33 18° SE 04:17:57 10° SE
Cosmos 2219 4.4 04:21:33 31° NNW 04:21:33 31° NNW 04:24:53 10° NNE
Okean O Rocket 3.1 04:18:28 10° NNE 04:22:15 34° E 04:22:15 34° E
SL-16 R/B 3.8 04:18:13 10° N 04:23:21 33° NE 04:28:26 10° ESE
ATLAS 2AS CENTAUR R/B 4.1 04:25:24 28° NW 04:26:28 29° NNW 04:33:20 10° NNE
CZ-2D R/B 3.0 04:24:21 10° N 04:27:41 39° N 04:27:41 39° N
Meteor 1-13 Rocket 4.4 04:33:02 64° SSE 04:33:47 73° E 04:39:29 10° NNE
Cosmos 2227 Rocket 2.1 04:35:40 78° SE 04:35:48 79° ESE 04:41:30 10° NNE
Meteor 2-8 Rocket 4.3 04:41:12 73° SSW 04:41:49 83° W 04:47:59 10° N
RESURS DK-1 3.1 04:45:27 50° ENE 04:45:27 50° ENE 04:48:46 10° NNE
Cosmos 2297 Rocket 2.4 04:43:50 53° SSE 04:44:59 68° ESE 04:50:37 10° NNE
Cosmos 1346 Rocket 4.1 04:45:29 35° ESE 04:46:03 37° E 04:49:45 10° NNE
IRS-1C Rocket 4.3 04:43:35 10° NNE 04:48:53 70° ESE 04:50:31 44° S
Resurs 1-4 Rocket 3.1 04:46:46 10° N 04:50:15 33° NW 04:50:15 33° NW
Tiangong 1 3.6 04:53:54 21° E 04:53:54 21° E 04:55:05 10° E
NOSS 3-2 (A) 3.9 04:45:39 10° NW 04:53:04 60° WSW 05:00:59 10° SSE
CZ-2C R/B 3.8 04:51:41 41° SSE 04:53:14 77° ENE 04:57:54 10° N
PSLV R/B 4.1 04:57:48 10° N 05:01:21 64° N 05:01:21 64° N
Cosmos 292 Rocket 3.9 04:59:19 10° NNW 05:04:12 74° ENE 05:09:02 10° SSE
CZ-4B DEB 4.4 04:59:23 10° NNE 05:04:53 71° ESE 05:09:02 18° S
Lacrosse 5 1.9 05:06:15 59° WNW 05:06:44 62° NW 05:11:46 10° NE
BREEZE M DEB (TANK) 2.8 05:09:00 48° NNW 05:09:14 49° NNW 05:16:06 10° ENE
Cosmos 2344 4.1 05:07:13 37° W 05:09:57 49° NW 05:18:45 10° NNE
MOZ.5/SAFIR/RUBIN 5/SL-8 4.3 05:12:09 42° NW 05:12:09 42° NW 05:15:40 10° NNW
USA 215 4.0 05:07:47 10° S 05:12:33 32° SW 05:12:33 32° SW
DELTA 2 R/B (1) 4.1 05:13:35 38° SSW 05:15:06 49° SSE 05:20:28 10° E
Cosmos 1727 Rocket 4.1 05:13:06 39° SW 05:15:10 56° WNW 05:21:23 10° N
Cosmos 724 4.4 05:10:17 10° NNW 05:16:34 86° ENE 05:22:48 10° SSE
Cosmos 2082 3.8 05:15:39 46° WSW 05:16:47 54° WNW 05:22:19 10° NNE
PAYLOAD B 4.1 05:13:16 10° NNE 05:18:46 79° WNW 05:22:15 23° SSW
Cosmos 1898 Rocket 3.8 05:14:55 16° S 05:19:07 67° ESE 05:24:23 10° NNE
Cosmos 2173 Rocket 4.0 05:13:39 10° N 05:19:47 83° E 05:25:56 10° S
Meteor 1-15 Rocket 4.2 05:17:27 10° N 05:23:04 83° E 05:28:41 10° SSE
ADEOS Rocket 3.3 05:17:41 10° NNE 05:24:55 84° ESE 05:31:20 10° SSW
CENTAUR R/B 3.4 05:18:35 10° NNW 05:26:21 68° NE 05:34:38 10° SE
Cosmos 2058 Rocket 3.0 05:22:02 10° N 05:26:25 88° E 05:30:46 10° S
Lacrosse 5 rocket 3.6 05:25:09 14° NW 05:26:26 16° NNW 05:29:12 10° NNE
Cosmos 1459 Rocket 4.0 05:20:27 10° N 05:26:52 86° W 05:33:10 10° S
Okean-O 3.3 05:23:23 10° NNE 05:27:46 55° E 05:32:07 10° S
CZ-4B R/B 3.1 05:26:16 10° N 05:30:36 59° WNW 05:32:25 33° SW
Cosmos 1937 Rocket 4.0 05:26:23 10° S 05:31:31 61° ESE 05:36:43 10° NNE
NOSS 3-2 (C) 4.3 05:24:31 10° NW 05:31:35 43° WSW 05:39:06 10° S
ARIANE 5 R/B 4.5 05:33:49 10° NNW 05:35:11 13° NW 05:35:11 13° NW
Cosmos 1666 2.9 05:35:33 10° NNW 05:39:16 46° W 05:41:53 17° SSW
OE (NEXTSAT) 4.4 05:40:04 45° W 05:40:57 63° SSW 05:44:31 10° SE
USA 116 4.2 05:37:07 10° SSE 05:42:13 87° ENE 05:46:50 10° NNW
Cosmos 1025 Rocket 3.7 05:42:12 31° W 05:42:26 31° WNW 05:46:20 10° NNW
CZ-4B R/B 3.4 05:39:42 10° N 05:44:54 49° WNW 05:49:08 16° SW
Okean 2 3.5 05:42:54 25° SW 05:45:00 49° W 05:49:03 10° N
EXPRESS MD2 3.4 05:43:31 28° NW 05:45:13 82° NNE 05:51:09 10° ESE
Cosmos 2237 Rocket 3.3 05:42:22 10° NW 05:48:08 22° WSW 05:51:13 10° SSW
NOSS 2-2 (E) 4.2 05:42:57 11° SSW 05:46:51 54° ESE 05:51:31 10° NE
ADEOS II 2.0 05:41:58 10° NNE 05:47:15 88° WNW 05:52:31 10° SSW
Meteor 2-15 4.4 05:41:32 10° S 05:47:35 88° E 05:53:41 10° N
ATLAS 5 CENTAUR R/B 3.2 05:45:47 18° WNW 05:49:12 30° WSW 05:54:42 10° S
ASTRO F (AKARI) 4.5 05:49:03 10° S 05:52:05 45° W 05:55:14 10° NNW
Meteor 2-4 Rocket 4.2 05:50:01 13° SW 05:54:52 43° WNW 06:00:31 10° N
NOSS 3-4 (A) 4.4 05:52:51 20° W 05:56:17 33° NW 06:02:12 10° NNE
NOSS 3-4 (C) 4.4 05:52:56 20° W 05:56:23 33° NW 06:02:19 10° NNE
Cosmos 1626 Rocket 3.7 05:52:48 10° S 05:57:10 79° E 06:01:32 10° N
Okean O Rocket 2.8 05:55:14 10° NNW 05:58:41 23° WNW 05:59:43 21° W
Meteor PRIRODA 3.6 05:59:22 10° N 06:03:05 66° WNW 06:06:45 10° SSW
SL-16 R/B 2.6 06:02:16 10° NW 06:07:29 38° WSW 06:12:40 10° S
Meteor 2-15 Rocket 4.4 06:01:28 10° SSW 06:07:32 76° W 06:13:38 10° N
NOSS 8 (A) 4.4 06:07:20 15° SW 06:09:55 66° NW 06:13:27 10° NNE
Cosmos 2227 Rocket 3.7 06:17:32 13° W 06:20:32 18° NW 06:24:25 10° N
Cosmos 1602 Rocket 3.6 06:16:27 10° SSW 06:20:49 57° W 06:25:12 10° N
Cosmos 2233 Rocket 4.2 06:15:34 10° N 06:21:53 77° E 06:28:05 10° SSE
Aureole 2 Rocket 3.4 06:19:42 10° NW 06:22:27 23° W 06:25:01 10° SSW
Cosmos 1346 Rocket 4.4 06:21:06 13° W 06:22:38 16° WNW 06:25:11 10° NNW
RESURS DK-1 4.3 06:21:25 12° WNW 06:23:09 14° NW 06:25:27 10° NNW
SKYMED 2 3.7 06:23:39 10° SSE 06:27:58 81° ENE 06:32:20 10° N
Tiangong 1 0.9 06:25:48 13° W 06:28:28 87° NNE 06:31:31 10° E
Cosmos 2297 Rocket 3.6 06:25:40 11° W 06:29:34 21° NW 06:33:47 10° N
SeaSat 1 3.7 06:25:31 10° SE 06:30:11 44° ENE 06:34:52 10° NNW
Cosmos 990 Rocket 4.2 06:28:15 10° SW 06:33:21 51° WNW 06:38:29 10° N
Cosmos 1269 Rocket 4.5 06:28:31 10° NNW 06:33:48 69° ENE 06:39:04 10° SSE
MOS 1 Rocket 3.7 06:30:26 10° N 06:35:03 49° WNW 06:39:56 10° SSW
Ariane Rocket 3.3 06:31:19 10° NNE 06:36:27 77° ESE 06:41:32 10° S
Cosmos 972 Rocket 4.4 06:31:48 10° SSW 06:37:15 63° WNW 06:43:26 10° NNE
Cosmos 1725 Rocket 4.2 06:31:20 10° NNW 06:37:23 51° W 06:43:23 10° SSW
CSL-04 Rocket 4.3 06:33:02 10° NNE 06:38:16 60° ESE 06:43:30 10° S
Cosmos 2228 4.3 06:35:02 10° NW 06:38:21 21° W 06:41:38 10° SW
Meteor 1-22 Rocket 4.3 06:35:54 10° N 06:41:25 88° ENE 06:47:08 10° S
COBE Rocket 4.3 06:37:30 10° N 06:41:59 41° WNW 06:46:21 10° SW
Cosmos 1812 Rocket 4.0 06:41:01 10° NNW 06:45:13 42° W 06:49:25 10° SSW
